Hourly Data Report for October 22, 2016

All times are specified in Local Standard Time (LST). Add 1 hour to adjust for Daylight Saving Time where and when it is observed.

BATHURST A
NEW BRUNSWICK

47°37'47.000" N
65°44'20.000" W
58.80 m
8100505
71574
ZBF

Download Data

Hourly Data (October 2016)
Hourly Data Report for October 22, 2016
Temp Definition
°C
Dew Point Temp Definition
°C
Rel Hum Definition
%
Wind Dir Definition
10's deg

Wind Spd Definition
km/h
Visibility Definition
km
Stn Press Definition
kPa
Hmdx Definition


Wind Chill Definition


Weather Definition


TIME
00:00 Legend Double Dagger 10.6 10.6 100 0 1 2.4 100.12     Rain,Fog
01:00 Legend Double Dagger 10.7 10.7 100 34 7 0.6 100.05     Drizzle,Fog
02:00 Legend Double Dagger 10.9 10.9 100 35 9 0.4 99.94     Drizzle,Fog
03:00 Legend Double Dagger 11.3 11.3 100 36 8 0.2 99.88     Drizzle,Fog
04:00 Legend Double Dagger 11.5 11.5 100 2 9 0.2 99.77     Drizzle,Fog
05:00 Legend Double Dagger 11.2 11.2 100 2 14 0.4 99.67     Drizzle,Fog
06:00 Legend Double Dagger 11.3 11.3 100 2 11 0.8 99.54     Moderate Rain,Fog
07:00 Legend Double Dagger 10.9 10.9 100 5 19 0.4 99.40     Fog
08:00 Legend Double Dagger 11.1 11.1 100 4 17 1.0 99.30     Rain,Fog
09:00 Legend Double Dagger 10.8 10.8 100 5 21 0.6 99.17     Rain,Fog
10:00 Legend Double Dagger 10.8 10.8 100 5 19 4.0 99.09     Rain,Fog
11:00 Legend Double Dagger 10.6 10.6 100 6 25 3.2 98.95     Rain,Fog
12:00 Legend Double Dagger 10.7 10.7 100 5 18 2.4 98.78     Rain,Fog
13:00 Legend Double Dagger 10.5 10.5 100 5 29 2.0 98.63     Rain,Fog
14:00 Legend Double Dagger 10.3 10.2 99 4 25 4.8 98.51     Rain,Fog
15:00 Legend Double Dagger 10.4 10.3 99 5 17 8.1 98.45     Rain,Fog
16:00 Legend Double Dagger 9.9 9.8 99 4 21 2.0 98.40     Rain,Fog
17:00 Legend Double Dagger 10.0 9.9 99 4 21 4.0 98.28     Rain,Fog
18:00 Legend Double Dagger 9.8 9.7 99 4 23 2.4 98.24     Rain,Fog
19:00 Legend Double Dagger 9.7 9.6 99 3 29 1.6 98.18     Rain,Drizzle,Fog
20:00 Legend Double Dagger 9.6 9.5 99 4 23 1.2 98.12     Rain,Fog
21:00 Legend Double Dagger 9.8 9.7 99 3 9 1.2 98.09     Rain,Fog
22:00 Legend Double Dagger 10.0 9.9 99 3 7 1.2 98.03     Drizzle,Fog
23:00 Legend Double Dagger 9.9 9.8 99 36 1 1.2 98.07     Drizzle,Fog

Notes on Data Quality.

Legend

  • E = Estimated
  • M = Missing
  • NA = Not Available
  • ‡ = Partner data that is not subject to review by the National Climate Archives
Date modified: